Zurück zum Katalog

STARLINK-32370

AktivKommunikationVLEO
NORAD 61635·PAYLOAD·🇺🇸 United States

Gestartet Oct 23, 2024 von Cape Canaveral Space Force Station

Loading…

Nächste Überflüge (nächste 24 Stunden)

TLE

AktuellSource: CelesTrak SupGP

Epoche: Sep 14, 2026, 14:25 UTC

1 61635C 24191Q   26257.60118056  .00034962  00000+0  12667-2 0  2571
2 61635  43.0025 167.3220 0001371 264.1678  20.7377 15.27550528    11

Verfolge STARLINK-32370 in Echtzeit mit AllMySat

Download on the App Store